Showing default

NOAA 5, 9057

Orbit data source: Space-Track

NOAA 5, 9057 is a payload satellite owned by NOAA (US) in SSO that was launched on Thu, 29 Jul 1976 UTC via a DELTA 2310 launch vehicle from the Air Force Western Test Range (AFWTR). Payload-class satellites include a variety of spacecraft equipped with specific instruments for various scientific and technological missions. These include communications satellites like Starlink; space stations such as the ISS; scientific satellites like the Hubble; Earth observation satellites from companies like Planet Labs, Umbra, and HawkEye 360; GPS; miniature CubeSats for education and research; and military/defense satellites.

Loading next visibility...
Identifier
9057, 1976-077A
Orbit
SSO
Country
Flag of USUS
Related business
Manufacturer
RCA/East Windsor
Mission
Non-operational spacecraft
Bus & Motor
TIROS M, Unknown motor
Mass
340 kg wet, 340 kg dry
Launch date (UTC)
1976-07-29 (50 years ago)
Launch vehicle
DELTA 2310
Launch site
Air Force Western Test Range (AFWTR)
Object type
Payload
Rocket body
Debris
Shape & HBR
Unknown
Radar Cross Section
Large (>1 m²)

Expand to show TLE details & history
Last TLE update: 2 days ago

TLE from 2 days ago
0 NOAA 5
1  9057U 76077A   26171.42181461 -.00000038  00000-0  60728-4 0  9991
2  9057 102.3018 157.5180 0009743 337.4437 179.0058 12.37831502254877
Epoch: 2026-06-20T10:07Z
TLE epoch observation values (Epoch: 2026-06-20T10:07:24.782Z)
Latitude
22.99611°
Longitude
-77.68774°
Altitude
1,525.948 km
Speed
7.101 km/s
True Right ascension
22h 51m 12s
True Declination
22° 53' 05"
Sunlit
Object was in daylight at epoch
Visualization orbit readout
Latitude
Unknown
Longitude
Unknown
Altitude
Unknown
Speed
Unknown
Apparent Right ascension
Unknown
Apparent Declination
Unknown
Sunlit
N/A
Visualization observer readout
Local Sidereal Time
05:24:27
Azimuth
Unknown
Elevation
Unknown
Doppler factor
Unknown
Orbital elements
Apogee altitude
1,521.093 km
Perigee altitude
1,505.716 km
Semi-major axis
7,891.542 km
Eccentricity
0.00097
Inclination
102.3018°
RAAN
157.518°
Arg. of periapsis
337.4437°
True anomaly
179.00773°
Mean anomaly
179.0058°
Eccentric anomaly
179.00677°
Mean motion
3.096 °/min
Orbital period
116.28 mins
BSTAR
0.000060728
Loading maneuver chart data...
Computing Atmospheric mass density...
Loading historical data...
Loading historical data...
Loading historical data...
Loading historical data...
Loading historical data...
Loading historical data...
Loading historical data...

Documentation

Showing up to 5 results
|